Location: Presov
(49.0000°N, 21.2500°E)
Time: 23:39:20
(UTC+02:00)

Transit 2A Rocket - Pass Details

Date: 19 April 2021
Orbit: 594 x 908 km, 66.7° (Epoch: 05 May)

Event Time Altitude Azimuth Distance (km) Brightness Sun altitude
Rises 18:39:12 0° 278° (W) 2,873 10.6 7.8°
Reaches altitude 10° 18:42:43 10° 307° (NW) 1,944 8.4 7.2°
Maximum altitude 18:44:41 13° 334° (NNW) 1,762 7.5 6.9°
Drops below altitude 10° 18:46:39 10° 2° (N) 1,939 7.3 6.6°
Sets 18:50:09 0° 31° (NNE) 2,856 7.8 6.0°
